Location: Bernadets
(43.3537°N, 0.3167°E)
Time: 23:43:26
(UTC+00:00)

Orbus 7S? - Pass Details

Date: 24 October 2021
Orbit: 328 x 6409 km, 56.9° (Epoch: 01 November)

Event Time Altitude Azimuth Distance (km) Brightness Sun altitude
Rises 19:03:50 0° 311° (NW) 5,473 9.2 -22.9°
Reaches altitude 10° 19:08:34 10° 312° (NW) 3,566 8.1 -23.8°
Enters shadow 19:16:02 80° 37° (NE) 715 3.7 -25.1°
